Songa Opal — V7RO5 — position and weather

sailwx.info

Track history (hours):
 
Tides and Currents Weather Stations Pressure Air Temp Water Temp Dewpoint Dewpoint Depression Visibility Wind Speed Wind Dir Waves Ship Positions

Songa Opal

Last reported at 2014-Oct-28 23:19 UTC. Time now 2014-Oct-30 16:36 UTC.
Position N 35°24' W 010°16'.

Length 144 m; draft 9.4 m.

Type: Ship. MMSI: 538003550.

Date/timePositionNaut miles runAvg speedWind from/ knotsBaromVisibWave heightAir tempDewpointWater temp
2014-Oct-28 23:19N 35°24' W 010°16'2712.8
2014-Oct-28 21:14N 35°29' W 009°43'1212.9
2014-Oct-28 20:16N 35°31' W 009°28'913.0
2014-Oct-28 19:33N 35°32' W 009°17'2612.8
2014-Oct-28 17:32N 35°36' W 008°46'1712.9
2014-Oct-28 16:15N 35°40' W 008°26'912.6
2014-Oct-28 15:31N 35°41' W 008°14'2512.8
2014-Oct-28 13:33N 35°45' W 007°44'1313.0
2014-Oct-28 12:33N 35°47' W 007°28'1312.7
2014-Oct-28 11:33N 35°49' W 007°13'8612.1
2014-Oct-28 04:26N 35°60' W 005°28'6 6.8
2014-Oct-28 03:32N 36°06' W 005°25'0 0.1
2014-Oct-28 02:32N 36°06' W 005°25'0 0.0
2014-Oct-28 01:32N 36°06' W 005°25'0 0.0
2014-Oct-28 00:32N 36°06' W 005°25'0 0.1
2014-Oct-27 23:32N 36°06' W 005°25'0 0.1
2014-Oct-27 22:32N 36°06' W 005°25'0 0.0
2014-Oct-27 21:32N 36°06' W 005°25'0 0.0
2014-Oct-27 20:20N 36°06' W 005°25'0 0.1
2014-Oct-27 19:32N 36°06' W 005°25'0 0.1
2014-Oct-27 18:26N 36°06' W 005°25'4 4.3
2014-Oct-27 17:33N 36°04' W 005°21'2 2.5
2014-Oct-27 16:33N 36°06' W 005°19'4 3.9
2014-Oct-27 15:33N 36°06' W 005°14'19012.4
2014-Oct-27 00:12N 36°58' W 001°26'913.3
2014-Oct-26 23:33N 37°03' W 001°18'1413.5
2014-Oct-26 22:33N 37°13' W 001°05'1313.5
2014-Oct-26 21:33N 37°21' W 000°53'1613.8
2014-Oct-26 20:23N 37°32' W 000°37'1113.7
2014-Oct-26 19:33N 37°41' W 000°28'1413.6
2014-Oct-26 18:31N 37°52' W 000°18'1313.8
2014-Oct-26 17:33N 38°03' W 000°09'1413.8
2014-Oct-26 16:33N 38°15' E 000°01'1313.4
2014-Oct-26 15:33N 38°26' E 000°10'1913.8
2014-Oct-26 14:10N 38°42' E 000°24'1513.3
2014-Oct-26 13:04N 38°56' E 000°30'913.3
2014-Oct-26 12:24N 39°04' E 000°33'3813.4
2014-Oct-26 09:33N 39°40' E 000°50'2116.9
2014-Oct-26 08:20N 40°00' E 000°57'7 8.6
2014-Oct-26 07:33N 40°07' E 000°59'1413.8
2014-Oct-26 06:32N 40°20' E 001°04'1313.7
2014-Oct-26 05:33N 40°33' E 001°07'1313.4
2014-Oct-26 04:33N 40°47' E 001°10'17 0.5
2014-Oct-24 19:21N 41°03' E 001°16'12 0.4
2014-Oct-23 16:25N 40°56' E 001°28'6 0.8
2014-Oct-23 09:23N 40°50' E 001°31'1315.1
2014-Oct-23 08:33N 40°37' E 001°33'1611.4
2014-Oct-23 07:08N 40°21' E 001°34'710.6
2014-Oct-23 06:27N 40°15' E 001°40'126 3.9
2014-Oct-21 22:24N 38°30' E 003°09'9213.2
2014-Oct-21 15:28N 37°24' E 004°31'1211.9
2014-Oct-21 14:29N 37°16' E 004°41'  
Track history (hours):
 
Tides and Currents Weather Stations Pressure Air Temp Water Temp Dewpoint Dewpoint Depression Visibility Wind Speed Wind Dir Waves Ship Positions

Songa Opal

Last reported at 2014-Oct-28 23:19 UTC. Time now 2014-Oct-30 16:36 UTC.
Position N 35°24' W 010°16'.

Length 144 m; draft 9.4 m.

Type: Ship. MMSI: 538003550.

Date/timePositionNaut miles runAvg speedWind from/ knotsBaromVisibWave heightAir tempDewpointWater temp
2014-Oct-28 23:19N 35°24' W 010°16'2712.8
2014-Oct-28 21:14N 35°29' W 009°43'1212.9
2014-Oct-28 20:16N 35°31' W 009°28'913.0
2014-Oct-28 19:33N 35°32' W 009°17'2612.8
2014-Oct-28 17:32N 35°36' W 008°46'1712.9
2014-Oct-28 16:15N 35°40' W 008°26'912.6
2014-Oct-28 15:31N 35°41' W 008°14'2512.8
2014-Oct-28 13:33N 35°45' W 007°44'1313.0
2014-Oct-28 12:33N 35°47' W 007°28'1312.7
2014-Oct-28 11:33N 35°49' W 007°13'8612.1
2014-Oct-28 04:26N 35°60' W 005°28'6 6.8
2014-Oct-28 03:32N 36°06' W 005°25'0 0.1
2014-Oct-28 02:32N 36°06' W 005°25'0 0.0
2014-Oct-28 01:32N 36°06' W 005°25'0 0.0
2014-Oct-28 00:32N 36°06' W 005°25'0 0.1
2014-Oct-27 23:32N 36°06' W 005°25'0 0.1
2014-Oct-27 22:32N 36°06' W 005°25'0 0.0
2014-Oct-27 21:32N 36°06' W 005°25'0 0.0
2014-Oct-27 20:20N 36°06' W 005°25'0 0.1
2014-Oct-27 19:32N 36°06' W 005°25'0 0.1
2014-Oct-27 18:26N 36°06' W 005°25'4 4.3
2014-Oct-27 17:33N 36°04' W 005°21'2 2.5
2014-Oct-27 16:33N 36°06' W 005°19'4 3.9
2014-Oct-27 15:33N 36°06' W 005°14'19012.4
2014-Oct-27 00:12N 36°58' W 001°26'913.3
2014-Oct-26 23:33N 37°03' W 001°18'1413.5
2014-Oct-26 22:33N 37°13' W 001°05'1313.5
2014-Oct-26 21:33N 37°21' W 000°53'1613.8
2014-Oct-26 20:23N 37°32' W 000°37'1113.7
2014-Oct-26 19:33N 37°41' W 000°28'1413.6
2014-Oct-26 18:31N 37°52' W 000°18'1313.8
2014-Oct-26 17:33N 38°03' W 000°09'1413.8
2014-Oct-26 16:33N 38°15' E 000°01'1313.4
2014-Oct-26 15:33N 38°26' E 000°10'1913.8
2014-Oct-26 14:10N 38°42' E 000°24'1513.3
2014-Oct-26 13:04N 38°56' E 000°30'913.3
2014-Oct-26 12:24N 39°04' E 000°33'3813.4
2014-Oct-26 09:33N 39°40' E 000°50'2116.9
2014-Oct-26 08:20N 40°00' E 000°57'7 8.6
2014-Oct-26 07:33N 40°07' E 000°59'1413.8
2014-Oct-26 06:32N 40°20' E 001°04'1313.7
2014-Oct-26 05:33N 40°33' E 001°07'1313.4
2014-Oct-26 04:33N 40°47' E 001°10'17 0.5
2014-Oct-24 19:21N 41°03' E 001°16'12 0.4
2014-Oct-23 16:25N 40°56' E 001°28'6 0.8
2014-Oct-23 09:23N 40°50' E 001°31'1315.1
2014-Oct-23 08:33N 40°37' E 001°33'1611.4
2014-Oct-23 07:08N 40°21' E 001°34'710.6
2014-Oct-23 06:27N 40°15' E 001°40'126 3.9
2014-Oct-21 22:24N 38°30' E 003°09'9213.2
2014-Oct-21 15:28N 37°24' E 004°31'1211.9
2014-Oct-21 14:29N 37°16' E 004°41'  

Dump ship's entire track history